GW2708 Weather Reports


time (UTC)temp
C
wind
direction
speed
KPH
gust
KPH
rain 1hr
cm
rain 24hr
cm
rain mn
cm
humidity
%
barometer
mb
20260510203518 10 248 12.9 30.6 0.00 0.03 0.00 41 1014.2
20260510203037 10 333 9.7 25.7 0.00 0.03 0.00 41 1014.1
20260510202518 10 359 9.7 25.7 0.00 0.03 0.00 42 1014.2
20260510202021 10 269 11.3 25.7 0.00 0.03 0.00 42 1014.1
20260510201539 10 248 11.3 30.6 0.00 0.03 0.00 41 1013.9
20260510201018 10 275 12.9 30.6 0.00 0.03 0.00 40 1013.8
20260510200518 10 278 8.0 27.4 0.00 0.03 0.00 41 1013.9
20260510200036 10 277 12.9 22.5 0.00 0.03 0.00 38 1013.9
20260510195520 10 167 9.7 29.0 0.00 0.18 0.00 38 1013.8
20260510195020 10 311 9.7 29.0 0.00 0.18 0.00 38 1013.7
20260510194537 10 316 16.1 29.0 0.00 0.18 0.00 36 1013.8
20260510194019 10 347 9.7 30.6 0.00 0.18 0.00 39 1013.7
20260510193522 10 242 16.1 30.6 0.00 0.18 0.00 36 1013.7
20260510193037 10 281 8.0 27.4 0.00 0.18 0.00 37 1013.7
20260510192521 10 242 12.9 24.1 0.00 0.18 0.00 37 1013.7
20260510192018 10 281 8.0 24.1 0.00 0.18 0.00 38 1013.7
20260510191539 10 296 12.9 25.7 0.00 0.18 0.00 38 1013.6
20260510191018 10 330 12.9 32.2 0.00 0.18 0.00 35 1013.7
20260510190518 10 274 12.9 32.2 0.00 0.18 0.00 36 1013.6
20260510190047 10 283 11.3 37.0 0.00 0.18 0.00 34 1013.7
20260510185521 10 305 16.1 37.0 0.00 0.18 0.00 35 1013.5
20260510185021 10 321 14.5 29.0 0.00 0.18 0.00 35 1013.5
20260510184547 10 300 9.7 27.4 0.00 0.18 0.00 35 1013.4
20260510184024 10 273 14.5 27.4 0.00 0.18 0.00 37 1013.4
20260510183521 10 308 9.7 25.7 0.00 0.18 0.00 40 1013.3
20260510183035 10 24 8.0 25.7 0.00 0.18 0.00 40 1013.3
20260510182519 10 299 12.9 33.8 0.00 0.18 0.00 40 1013.2
20260510182022 9 348 11.3 33.8 0.00 0.18 0.00 42 1013.2
20260510181551 9 335 14.5 25.7 0.00 0.18 0.00 42 1013.1
20260510181019 9 278 12.9 24.1 0.00 0.18 0.00 39 1013.1
20260510180519 9 307 11.3 27.4 0.00 0.18 0.00 41 1013.2
20260510180046 10 302 9.7 27.4 0.00 0.18 0.00 42 1013.2
20260510175518 10 291 11.3 27.4 0.00 0.18 0.00 42 1013.1
20260510175018 9 323 11.3 24.1 0.00 0.18 0.00 46 1013.0
20260510174536 10 241 11.3 24.1 0.00 0.18 0.00 44 1013.1
20260510174022 9 303 9.7 20.9 0.00 0.18 0.00 45 1013.0
20260510173517 9 305 11.3 20.9 0.00 0.18 0.00 43 1013.1
20260510173037 9 256 9.7 22.5 0.00 0.18 0.00 43 1013.0
20260510172518 9 282 9.7 25.7 0.00 0.18 0.00 44 1013.0
20260510172023 8 230 8.0 25.7 0.00 0.18 0.00 50 1013.1
20260510171550 8 266 9.7 22.5 0.00 0.18 0.00 48 1013.0
20260510171018 8 278 9.7 24.1 0.00 0.18 0.00 47 1013.0
20260510170517 8 306 11.3 24.1 0.00 0.18 0.00 46 1012.9
20260510170041 8 294 9.7 22.5 0.00 0.18 0.00 47 1013.0
20260510165518 8 284 9.7 25.7 0.00 0.18 0.00 46 1013.0
20260510165021 8 221 9.7 25.7 0.00 0.18 0.00 47 1013.0
20260510164538 8 280 9.7 27.4 0.00 0.18 0.00 50 1012.9
20260510164021 8 269 9.7 27.4 0.00 0.18 0.00 49 1013.0
20260510163518 8 297 8.0 19.3 0.00 0.18 0.00 53 1012.9
20260510163035 8 321 8.0 17.7 0.00 0.18 0.00 56 1012.9
20260510162524 8 335 9.7 20.9 0.00 0.18 0.00 53 1012.9
20260510162021 8 308 8.0 20.9 0.00 0.18 0.00 52 1012.9
20260510161536 8 50 8.0 24.1 0.00 0.18 0.00 55 1012.7
20260510161021 8 345 9.7 24.1 0.00 0.18 0.00 55 1012.7
20260510160518 8 306 8.0 19.3 0.00 0.18 0.00 54 1012.6
20260510160043 8 341 8.0 25.7 0.00 0.18 0.00 58 1012.6
20260510155523 8 241 9.7 25.7 0.00 0.18 0.00 54 1012.7
20260510155020 8 278 8.0 17.7 0.00 0.18 0.00 59 1012.6
20260510154553 7 289 8.0 20.9 0.00 0.18 0.00 57 1012.5
20260510154020 7 278 9.7 24.1 0.00 0.18 0.00 62 1012.4
20260510153520 7 261 9.7 24.1 0.00 0.18 0.00 63 1012.4
20260510153047 7 319 8.0 24.1 0.00 0.18 0.00 63 1012.4
20260510152518 7 284 11.3 24.1 0.00 0.18 0.00 63 1012.3
20260510152020 7 311 8.0 17.7 0.00 0.18 0.00 64 1012.3
20260510151535 7 313 6.4 17.7 0.00 0.18 0.00 67 1012.3
20260510151021 7 305 9.7 17.7 0.00 0.18 0.00 65 1012.3
20260510150530 7 261 4.8 17.7 0.00 0.18 0.00 67 1012.1
20260510150036 7 302 8.0 17.7 0.00 0.18 0.00 65 1012.1
20260510145520 7 9 6.4 14.5 0.00 0.18 0.00 66 1012.1
20260510145020 7 243 6.4 14.5 0.00 0.18 0.00 66 1012.0
20260510144548 6 34 6.4 12.9 0.00 0.18 0.00 70 1012.0
20260510144022 6 248 4.8 19.3 0.00 0.18 0.00 71 1011.9
20260510143523 6 207 6.4 20.9 0.00 0.18 0.00 71 1011.9
20260510143039 6 240 8.0 20.9 0.00 0.18 0.00 72 1011.9
20260510142527 6 43 8.0 19.3 0.00 0.18 0.00 72 1011.9
20260510142020 6 293 6.4 19.3 0.00 0.18 0.00 73 1011.9
20260510141541 6 300 8.0 19.3 0.00 0.18 0.00 71 1011.9
20260510141022 6 359 6.4 17.7 0.00 0.18 0.00 71 1011.9
20260510140521 6 255 6.4 19.3 0.00 0.18 0.00 73 1011.8
20260510140035 6 283 6.4 19.3 0.00 0.18 0.00 71 1011.8
20260510135521 6 264 6.4 20.9 0.00 0.18 0.00 73 1011.7
20260510135021 5 308 8.0 20.9 0.00 0.18 0.00 73 1011.7
20260510134535 5 311 6.4 16.1 0.00 0.18 0.00 71 1011.6
20260510134024 6 257 8.0 16.1 0.00 0.18 0.00 73 1011.5
20260510133520 6 342 8.0 24.1 0.00 0.18 0.00 72 1011.5
20260510133034 5 307 11.3 24.1 0.00 0.18 0.00 71 1011.4
20260510132520 5 4 6.4 20.9 0.00 0.18 0.00 73 1011.3
20260510132021 5 300 11.3 20.9 0.00 0.18 0.00 72 1011.3
20260510131536 5 289 8.0 20.9 0.00 0.18 0.00 72 1011.3
20260510131020 5 321 6.4 20.9 0.00 0.18 0.00 73 1011.3
20260510130520 5 284 8.0 16.1 0.00 0.18 0.00 73 1011.2
20260510130039 5 318 8.0 17.7 0.00 0.18 0.00 73 1011.2
20260510125520 5 314 8.0 17.7 0.00 0.18 0.00 73 1011.3
20260510125023 5 263 6.4 17.7 0.00 0.18 0.00 73 1011.2
20260510124539 5 323 8.0 12.9 0.00 0.18 0.00 72 1011.1
20260510124022 5 272 3.2 14.5 0.00 0.18 0.00 73 1011.0
20260510123522 5 250 4.8 14.5 0.00 0.18 0.00 74 1011.0
20260510123036 5 293 6.4 14.5 0.00 0.18 0.00 74 1010.7
20260510122518 5 278 6.4 14.5 0.00 0.18 0.00 74 1010.7
20260510122018 4 357 4.8 14.5 0.00 0.18 0.00 76 1010.7
20260510121534 4 262 6.4 14.5 0.00 0.18 0.00 75 1010.6
20260510121020 4 318 4.8 14.5 0.00 0.18 0.00 76 1010.6
20260510120521 4 267 6.4 14.5 0.00 0.18 0.00 76 1010.5
20260510120034 4 300 4.8 12.9 0.00 0.18 0.00 77 1010.5
20260510115520 3 321 3.2 11.3 0.00 0.18 0.00 79 1010.6
20260510115022 3 288 4.8 12.9 0.00 0.18 0.00 78 1010.4
20260510114537 3 233 3.2 12.9 0.00 0.18 0.00 79 1010.4
20260510114019 3 301 6.4 12.9 0.00 0.18 0.00 79 1010.4
20260510113520 3 290 6.4 12.9 0.00 0.18 0.00 80 1010.2
20260510113036 3 298 6.4 12.9 0.00 0.18 0.00 80 1010.2
20260510112522 3 302 4.8 12.9 0.00 0.18 0.00 81 1010.1
20260510112022 2 297 4.8 14.5 0.00 0.18 0.00 81 1010.0
20260510111543 2 304 4.8 14.5 0.00 0.18 0.00 81 1009.9
20260510111021 2 61 4.8 14.5 0.00 0.18 0.00 82 1009.8
20260510110520 2 307 6.4 14.5 0.00 0.18 0.00 83 1009.7
20260510110037 2 298 4.8 11.3 0.00 0.18 0.00 84 1009.7
20260510105519 2 326 4.8 11.3 0.00 0.18 0.00 84 1009.6
20260510105022 2 313 3.2 8.0 0.00 0.18 0.00 84 1009.5
20260510104550 1 282 3.2 8.0 0.00 0.18 0.00 85 1009.4
20260510104020 1 274 3.2 8.0 0.00 0.18 0.00 85 1009.3
20260510103520 1 295 3.2 8.0 0.00 0.18 0.00 85 1009.2
20260510103039 1 256 4.8 9.7 0.00 0.18 0.00 85 1009.1
20260510102521 1 290 3.2 9.7 0.00 0.18 0.00 86 1009.0
20260510102021 1 293 4.8 9.7 0.00 0.18 0.00 86 1008.9
20260510101539 1 319 3.2 9.7 0.00 0.18 0.00 86 1008.8
20260510101023 1 274 3.2 9.7 0.00 0.18 0.00 86 1008.8
20260510100520 1 297 3.2 8.0 0.00 0.18 0.00 86 1008.6
20260510100040 1 331 3.2 9.7 0.00 0.18 0.00 86 1008.7
20260510095524 1 207 4.8 9.7 0.00 0.18 0.00 86 1008.6
20260510095021 2 228 4.8 11.3 0.00 0.18 0.00 86 1008.4
20260510094536 2 311 4.8 12.9 0.00 0.18 0.00 86 1008.3
20260510094020 2 304 6.4 12.9 0.00 0.18 0.00 86 1008.3
20260510093520 2 354 6.4 12.9 0.00 0.18 0.00 85 1008.3
20260510093036 2 11 6.4 16.1 0.00 0.18 0.00 85 1008.2
20260510092523 2 266 6.4 16.1 0.00 0.18 0.00 85 1008.0
20260510092020 2 308 6.4 19.3 0.00 0.18 0.00 85 1007.9
20260510091539 2 259 8.0 19.3 0.00 0.18 0.00 85 1007.9
20260510091022 2 305 8.0 16.1 0.00 0.18 0.00 85 1007.8
20260510090521 2 290 8.0 17.7 0.00 0.18 0.00 85 1007.7
20260510090037 2 273 8.0 17.7 0.00 0.18 0.00 85 1007.7
20260510085517 2 264 8.0 17.7 0.00 0.18 0.00 85 1007.6
20260510085019 2 8 6.4 17.7 0.00 0.18 0.00 85 1007.5
20260510084547 2 266 8.0 14.5 0.00 0.18 0.00 84 1007.4
20260510084020 2 214 6.4 14.5 0.00 0.18 0.00 84 1007.4
20260510083522 2 254 6.4 17.7 0.00 0.18 0.00 84 1007.3
20260510083042 2 296 8.0 17.7 0.00 0.18 0.00 84 1007.3
20260510082520 2 359 8.0 14.5 0.00 0.18 0.00 84 1007.3
20260510082020 2 299 6.4 14.5 0.00 0.18 0.00 83 1007.2
20260510081547 2 280 4.8 16.1 0.00 0.18 0.00 83 1007.2
20260510081020 2 245 8.0 16.1 0.00 0.18 0.00 84 1007.0
20260510080520 2 250 6.4 16.1 0.00 0.18 0.00 84 1006.9
20260510080037 2 335 8.0 16.1 0.00 0.18 0.00 84 1007.0
20260510075520 2 291 4.8 16.1 0.00 0.18 0.00 84 1006.8
20260510075020 2 342 6.4 16.1 0.00 0.18 0.00 84 1006.9
20260510074542 2 272 8.0 17.7 0.00 0.18 0.00 84 1006.8
20260510074020 2 200 8.0 17.7 0.00 0.18 0.00 83 1006.7
20260510073519 2 307 9.7 20.9 0.00 0.18 0.00 84 1006.5
20260510073046 2 290 8.0 20.9 0.00 0.18 0.00 83 1006.6
20260510072522 2 266 9.7 19.3 0.00 0.18 0.00 83 1006.5
20260510072021 2 6 9.7 20.9 0.00 0.18 0.00 83 1006.3
20260510071536 2 30 9.7 20.9 0.00 0.18 0.00 83 1006.2
20260510071020 2 342 11.3 24.1 0.00 0.18 0.00 83 1006.2
20260510070520 2 246 11.3 24.1 0.00 0.18 0.00 83 1006.0
20260510070038 2 290 11.3 24.1 0.00 0.18 0.00 83 1006.0
20260510065520 2 309 8.0 20.9 0.00 0.18 0.00 83 1005.9
20260510065023 2 261 9.7 20.9 0.00 0.18 0.00 83 1005.8
20260510064536 2 295 9.7 20.9 0.00 0.18 0.00 82 1005.7
20260510064020 2 316 8.0 19.3 0.00 0.18 0.00 82 1005.7
20260510063520 2 297 11.3 19.3 0.00 0.18 0.00 82 1005.7
20260510063037 2 325 11.3 19.3 0.00 0.18 0.00 82 1005.7
20260510062518 2 305 8.0 19.3 0.00 0.18 0.00 82 1005.7
20260510062017 2 347 9.7 19.3 0.00 0.18 0.00 82 1005.7
20260510061535 2 156 8.0 17.7 0.00 0.18 0.00 82 1005.6
20260510061021 2 293 8.0 19.3 0.00 0.18 0.00 82 1005.7
20260510060521 2 294 8.0 19.3 0.00 0.18 0.00 81 1005.5
20260510060042 3 314 6.4 22.5 0.00 0.18 0.00 81 1005.5
20260510055521 3 318 9.7 22.5 0.00 0.18 0.00 81 1005.5
20260510055020 3 271 6.4 16.1 0.00 0.18 0.00 81 1005.5
20260510054535 3 248 8.0 19.3 0.00 0.18 0.00 81 1005.5
20260510054021 3 354 6.4 19.3 0.00 0.18 0.00 81 1005.5
20260510053520 3 280 6.4 20.9 0.00 0.18 0.00 81 1005.4
20260510053041 3 294 6.4 20.9 0.00 0.18 0.00 81 1005.4
20260510052520 3 338 4.8 16.1 0.00 0.18 0.00 80 1005.3
20260510052024 3 271 6.4 16.1 0.00 0.18 0.00 80 1005.3
20260510051541 3 305 4.8 16.1 0.00 0.18 0.00 80 1005.3
20260510051019 3 272 6.4 16.1 0.00 0.18 0.00 80 1005.3
20260510050519 3 297 4.8 16.1 0.00 0.18 0.00 79 1005.2
20260510050038 3 295 6.4 16.1 0.00 0.18 0.00 79 1005.2
20260510045518 3 297 4.8 16.1 0.00 0.18 0.00 79 1005.1
20260510045021 3 331 6.4 17.7 0.00 0.18 0.00 79 1005.0
20260510044536 3 328 6.4 22.5 0.00 0.18 0.00 79 1004.9
20260510044020 3 193 6.4 22.5 0.00 0.18 0.00 79 1004.8
20260510043520 3 319 8.0 22.5 0.00 0.18 0.00 78 1004.8
20260510043035 3 264 9.7 22.5 0.00 0.18 0.00 78 1004.6
20260510042520 3 280 8.0 22.5 0.00 0.18 0.00 78 1004.5
20260510042020 4 298 9.7 22.5 0.00 0.18 0.00 77 1004.4
20260510041538 4 236 9.7 20.9 0.00 0.18 0.00 77 1004.3
20260510041022 4 325 11.3 29.0 0.00 0.18 0.00 77 1004.2
20260510040519 4 266 9.7 29.0 0.00 0.18 0.00 76 1004.0
20260510040036 4 287 11.3 27.4 0.00 0.18 0.00 76 1004.0
20260510035521 4 312 11.3 27.4 0.00 0.18 0.18 76 1003.9
20260510035023 4 359 12.9 25.7 0.00 0.18 0.18 76 1003.9
20260510034535 4 307 12.9 25.7 0.00 0.18 0.18 76 1003.8
20260510034020 4 311 12.9 29.0 0.00 0.18 0.18 76 1003.8
20260510033521 4 358 11.3 29.0 0.00 0.18 0.18 75 1003.9
20260510033034 5 297 12.9 29.0 0.00 0.18 0.18 75 1003.8
20260510032520 5 13 9.7 27.4 0.00 0.18 0.18 75 1003.8
20260510032019 5 356 12.9 27.4 0.00 0.18 0.18 75 1003.6
20260510031542 5 290 9.7 22.5 0.00 0.18 0.18 75 1003.6
20260510031020 5 273 9.7 20.9 0.00 0.18 0.18 75 1003.5
20260510030519 5 245 11.3 25.7 0.00 0.18 0.18 75 1003.4
20260510030035 5 344 11.3 25.7 0.00 0.18 0.18 75 1003.4
20260510025519 5 335 11.3 20.9 0.00 0.18 0.18 75 1003.1
20260510025019 5 350 11.3 27.4 0.00 0.18 0.18 74 1003.0
20260510024536 5 290 11.3 27.4 0.00 0.18 0.18 74 1003.1
20260510024019 5 344 9.7 22.5 0.00 0.18 0.18 74 1002.9
20260510023519 5 24 9.7 20.9 0.00 0.18 0.18 74 1002.7
20260510023040 5 278 9.7 27.4 0.00 0.18 0.18 74 1002.8
20260510022519 5 300 11.3 27.4 0.00 0.18 0.18 74 1002.7
20260510022022 5 331 11.3 32.2 0.00 0.18 0.18 73 1002.7
20260510021537 5 32 12.9 32.2 0.00 0.18 0.18 73 1002.6
20260510021018 5 299 6.4 22.5 0.00 0.18 0.18 73 1002.5
20260510020521 5 358 8.0 22.5 0.00 0.18 0.18 73 1002.4
20260510020035 5 259 8.0 22.5 0.00 0.18 0.18 72 1002.4
20260510015521 5 18 9.7 22.5 0.00 0.18 0.18 72 1002.3
20260510015020 5 345 11.3 22.5 0.00 0.18 0.18 72 1002.2
20260510014533 5 205 8.0 20.9 0.00 0.18 0.18 72 1002.1
20260510014019 5 354 9.7 22.5 0.00 0.18 0.18 72 1002.0
20260510013521 5 309 9.7 22.5 0.00 0.18 0.18 72 1001.9
20260510013038 5 287 9.7 20.9 0.00 0.18 0.18 72 1001.7
20260510012518 5 283 8.0 20.9 0.00 0.18 0.18 72 1001.6
20260510012019 6 316 8.0 25.7 0.00 0.18 0.18 71 1001.4
20260510011535 6 248 11.3 25.7 0.00 0.18 0.18 71 1001.3
20260510011018 6 290 11.3 32.2 0.00 0.18 0.18 71 1001.1
20260510010518 6 307 11.3 32.2 0.00 0.18 0.18 70 1000.9
20260510010034 6 293 11.3 32.2 0.00 0.18 0.18 70 1000.9
20260510005521 6 8 11.3 29.0 0.00 0.18 0.18 69 1000.6
20260510005020 6 338 12.9 29.0 0.00 0.18 0.18 69 1000.6
20260510004535 6 236 11.3 25.7 0.00 0.18 0.18 68 1000.5
20260510004021 6 307 9.7 27.4 0.00 0.18 0.18 68 1000.4
20260510003519 6 333 12.9 29.0 0.00 0.18 0.18 67 1000.2
20260510003040 7 319 14.5 29.0 0.00 0.18 0.18 67 1000.1
20260510002518 7 326 14.5 32.2 0.00 0.18 0.18 67 1000.1
20260510002019 7 268 14.5 32.2 0.00 0.18 0.18 66 999.8
20260510001535 7 300 12.9 32.2 0.00 0.18 0.18 65 999.7
20260510001020 7 328 12.9 27.4 0.00 0.18 0.18 65 999.7
20260510000520 8 299 11.3 25.7 0.00 0.18 0.18 65 999.6
20260510000037 8 238 12.9 27.4 0.00 0.18 0.18 63 999.4
20260509235518 8 279 11.3 32.2 0.00 0.18 0.18 62 999.5
20260509235019 8 298 12.9 33.8 0.00 0.18 0.18 61 999.4
20260509234539 9 314 12.9 33.8 0.00 0.18 0.18 58 999.2
20260509234020 9 259 14.5 33.8 0.00 0.18 0.18 56 999.1
20260509233518 9 208 11.3 35.4 0.00 0.18 0.18 56 999.0
20260509233033 9 310 12.9 35.4 0.00 0.18 0.18 56 999.0
20260509232518 9 297 14.5 35.4 0.00 0.18 0.18 54 999.1
20260509232018 9 201 14.5 30.6 0.00 0.18 0.18 54 999.0
20260509231533 9 292 12.9 32.2 0.00 0.18 0.18 54 999.0
20260509231016 9 9 14.5 32.2 0.00 0.18 0.18 53 998.8
20260509230519 10 273 16.1 27.4 0.00 0.18 0.18 53 998.7
20260509230037 10 288 14.5 38.6 0.00 0.18 0.18 52 998.7
20260509225516 10 269 16.1 38.6 0.00 0.18 0.18 52 998.6
20260509225018 10 323 14.5 33.8 0.00 0.18 0.18 51 998.5
20260509224537 10 273 12.9 29.0 0.00 0.18 0.18 51 998.4
20260509224018 11 310 11.3 29.0 0.00 0.18 0.18 51 998.0
20260509223522 11 352 16.1 29.0 0.00 0.18 0.18 51 998.2
20260509223035 10 274 11.3 25.7 0.00 0.18 0.18 54 998.1
20260509222518 10 252 11.3 22.5 0.00 0.18 0.18 56 997.8
20260509222018 10 297 9.7 20.9 0.00 0.18 0.18 60 997.7
20260509221533 9 343 9.7 22.5 0.00 0.18 0.18 62 997.6
20260509221016 9 338 8.0 22.5 0.00 0.18 0.18 65 997.5
20260509220516 9 323 9.7 22.5 0.00 0.18 0.18 64 997.4
20260509220037 8 352 8.0 19.3 0.00 0.18 0.18 65 997.4
20260509215521 8 283 9.7 25.7 0.00 0.18 0.18 67 997.3
20260509215018 8 335 9.7 25.7 0.00 0.18 0.18 70 997.1
20260509214536 8 301 9.7 24.1 0.00 0.18 0.18 71 997.1
20260509214024 9 292 9.7 24.1 0.00 0.18 0.18 72 997.1
20260509213518 9 290 9.7 24.1 0.00 0.18 0.18 73 997.0
20260509213039 9 302 11.3 22.5 0.00 0.18 0.18 75 997.0
20260509212519 9 316 12.9 22.5 0.00 0.18 0.18 76 997.0
20260509212023 10 280 9.7 22.5 0.00 0.18 0.18 79 996.9
20260509211530 10 259 8.0 20.9 0.00 0.18 0.18 80 996.9
20260509211021 10 228 8.0 19.3 0.00 0.18 0.18 81 996.8
20260509210516 10 241 6.4 19.3 0.03 0.18 0.18 83 996.6
20260509210040 10 14 4.8 11.3 0.03 0.18 0.18 84 996.3
20260509205516 9 248 4.8 16.1 0.03 0.18 0.18 85 996.4
20260509205017 9 288 4.8 16.1 0.03 0.18 0.18 85 996.3
20260509204535 9 276 4.8 16.1 0.05 0.18 0.18 85 996.2
20260509204019 8 273 6.4 16.1 0.08 0.18 0.18 86 996.2